Time,TemperatureF,DewpointF,PressureIn,WindDirection,WindDirectionDegrees,WindSpeedMPH,WindSpeedGustMPH,Humidity,HourlyPrecipIn,Conditions,Clouds,dailyrainin,SoftwareType,DateUTC
2013-04-04 00:00:00,29.0,18.0,29.61,West,270,4.0,9.0,63,0.00,,,0.00,Rainwise IP-100,2013-04-04 04:00:00,
2013-04-04 00:01:00,29.0,18.0,29.61,West,270,3.0,9.0,63,0.00,,,0.00,Rainwise IP-100,2013-04-04 04:01:00,
2013-04-04 00:04:00,29.0,18.0,29.61,West,270,5.0,9.0,62,0.00,,,0.00,Rainwise IP-100,2013-04-04 04:04:00,
2013-04-04 00:09:00,29.0,18.0,29.61,North,360,5.0,9.0,62,0.00,,,0.00,Rainwise IP-100,2013-04-04 04:09:00,
2013-04-04 00:11:00,29.0,18.0,29.61,West,270,4.0,11.0,63,0.00,,,0.00,Rainwise IP-100,2013-04-04 04:11:00,
2013-04-04 00:14:00,29.0,18.0,29.60,West,270,6.0,11.0,62,0.00,,,0.00,Rainwise IP-100,2013-04-04 04:14:00,
2013-04-04 00:16:00,29.0,18.0,29.60,North,360,4.0,11.0,63,0.00,,,0.00,Rainwise IP-100,2013-04-04 04:16:00,
2013-04-04 00:21:00,30.0,21.0,29.61,West,270,3.0,9.0,63,0.00,,,0.00,Rainwise IP-100,2013-04-04 04:21:00,
2013-04-04 00:26:00,30.0,21.0,29.61,West,270,3.0,14.0,62,0.00,,,0.00,Rainwise IP-100,2013-04-04 04:26:00,
2013-04-04 00:31:00,30.0,18.0,29.61,North,360,2.0,15.0,61,0.00,,,0.00,Rainwise IP-100,2013-04-04 04:31:00,
2013-04-04 00:36:00,30.0,18.0,29.62,North,360,4.0,13.0,60,0.00,,,0.00,Rainwise IP-100,2013-04-04 04:36:00,
2013-04-04 00:41:00,30.0,18.0,29.63,North,360,3.0,11.0,60,0.00,,,0.00,Rainwise IP-100,2013-04-04 04:41:00,
2013-04-04 00:44:00,30.0,18.0,29.63,North,360,2.0,17.0,59,0.00,,,0.00,Rainwise IP-100,2013-04-04 04:44:00,
2013-04-04 00:46:00,30.0,18.0,29.63,West,270,3.0,17.0,59,0.00,,,0.00,Rainwise IP-100,2013-04-04 04:46:00,
2013-04-04 00:49:00,30.0,18.0,29.63,North,360,6.0,16.0,58,0.00,,,0.00,Rainwise IP-100,2013-04-04 04:49:00,
2013-04-04 00:54:00,30.0,18.0,29.63,West,270,6.0,13.0,60,0.00,,,0.00,Rainwise IP-100,2013-04-04 04:54:00,
2013-04-04 00:56:00,30.0,18.0,29.63,West,270,5.0,13.0,58,0.00,,,0.00,Rainwise IP-100,2013-04-04 04:56:00,
2013-04-04 01:01:00,30.0,18.0,29.65,West,270,7.0,12.0,60,0.00,,,0.00,Rainwise IP-100,2013-04-04 05:01:00,
2013-04-04 01:06:00,30.0,18.0,29.65,ENE,67,10.0,11.0,59,0.00,,,0.00,Rainwise IP-100,2013-04-04 05:06:00,
2013-04-04 01:11:00,30.0,18.0,29.64,SW,225,7.0,12.0,58,0.00,,,0.00,Rainwise IP-100,2013-04-04 05:11:00,
2013-04-04 01:16:00,30.0,18.0,29.64,West,270,7.0,10.0,58,0.00,,,0.00,Rainwise IP-100,2013-04-04 05:16:00,
2013-04-04 01:21:00,30.0,18.0,29.65,North,360,5.0,14.0,58,0.00,,,0.00,Rainwise IP-100,2013-04-04 05:21:00,
2013-04-04 01:26:00,30.0,18.0,29.65,West,270,4.0,15.0,59,0.00,,,0.00,Rainwise IP-100,2013-04-04 05:26:00,
2013-04-04 01:31:00,30.0,18.0,29.65,West,270,4.0,18.0,57,0.00,,,0.00,Rainwise IP-100,2013-04-04 05:31:00,
2013-04-04 01:36:00,30.0,18.0,29.65,North,360,5.0,18.0,59,0.00,,,0.00,Rainwise IP-100,2013-04-04 05:36:00,
2013-04-04 01:39:00,30.0,18.0,29.65,North,360,3.0,13.0,58,0.00,,,0.00,Rainwise IP-100,2013-04-04 05:39:00,
2013-04-04 01:44:00,30.0,18.0,29.65,West,270,4.0,18.0,57,0.00,,,0.00,Rainwise IP-100,2013-04-04 05:44:00,
2013-04-04 01:49:00,30.0,18.0,29.65,West,270,5.0,13.0,58,0.00,,,0.00,Rainwise IP-100,2013-04-04 05:49:00,
2013-04-04 01:54:00,30.0,18.0,29.66,North,360,5.0,10.0,58,0.00,,,0.00,Rainwise IP-100,2013-04-04 05:54:00,
2013-04-04 01:56:00,30.0,18.0,29.66,West,270,8.0,10.0,58,0.00,,,0.00,Rainwise IP-100,2013-04-04 05:56:00,
2013-04-04 02:01:00,30.0,18.0,29.66,West,270,8.0,12.0,57,0.00,,,0.00,Rainwise IP-100,2013-04-04 06:01:00,
2013-04-04 02:02:00,30.0,18.0,29.66,WSW,247,8.0,12.0,57,0.00,,,0.00,Rainwise IP-100,2013-04-04 06:02:00,
2013-04-04 02:06:00,30.0,18.0,29.66,North,360,6.0,12.0,59,0.00,,,0.00,Rainwise IP-100,2013-04-04 06:06:00,
2013-04-04 02:11:00,30.0,18.0,29.66,West,270,5.0,11.0,58,0.00,,,0.00,Rainwise IP-100,2013-04-04 06:11:00,
2013-04-04 02:14:00,30.0,18.0,29.66,West,270,5.0,11.0,59,0.00,,,0.00,Rainwise IP-100,2013-04-04 06:14:00,
2013-04-04 02:19:00,30.0,18.0,29.66,North,360,0.0,13.0,60,0.00,,,0.00,Rainwise IP-100,2013-04-04 06:19:00,
2013-04-04 02:24:00,29.0,18.0,29.67,West,270,3.0,11.0,60,0.00,,,0.00,Rainwise IP-100,2013-04-04 06:24:00,
2013-04-04 02:29:00,29.0,16.0,29.67,West,270,4.0,11.0,59,0.00,,,0.00,Rainwise IP-100,2013-04-04 06:29:00,
2013-04-04 02:31:00,29.0,16.0,29.66,West,270,8.0,11.0,59,0.00,,,0.00,Rainwise IP-100,2013-04-04 06:31:00,
2013-04-04 02:36:00,29.0,16.0,29.66,West,270,4.0,13.0,59,0.00,,,0.00,Rainwise IP-100,2013-04-04 06:36:00,
2013-04-04 02:39:00,29.0,18.0,29.66,West,270,5.0,13.0,60,0.00,,,0.00,Rainwise IP-100,2013-04-04 06:39:00,
2013-04-04 02:41:00,29.0,16.0,29.65,North,360,4.0,12.0,58,0.00,,,0.00,Rainwise IP-100,2013-04-04 06:41:00,
2013-04-04 02:46:00,29.0,16.0,29.65,West,270,7.0,11.0,58,0.00,,,0.00,Rainwise IP-100,2013-04-04 06:46:00,
2013-04-04 02:51:00,29.0,16.0,29.65,West,270,5.0,10.0,57,0.00,,,0.00,Rainwise IP-100,2013-04-04 06:51:00,
2013-04-04 02:54:00,29.0,16.0,29.65,West,270,5.0,10.0,58,0.00,,,0.00,Rainwise IP-100,2013-04-04 06:54:00,
2013-04-04 02:59:00,29.0,16.0,29.65,West,270,7.0,10.0,58,0.00,,,0.00,Rainwise IP-100,2013-04-04 06:59:00,
2013-04-04 03:04:00,29.0,16.0,29.65,North,360,7.0,14.0,57,0.00,,,0.00,Rainwise IP-100,2013-04-04 07:04:00,
2013-04-04 03:06:00,29.0,16.0,29.65,NNE,22,5.0,13.0,56,0.00,,,0.00,Rainwise IP-100,2013-04-04 07:06:00,
2013-04-04 03:12:00,29.0,16.0,29.65,North,360,4.0,8.0,56,0.00,,,0.00,Rainwise IP-100,2013-04-04 07:12:00,
2013-04-04 03:13:00,29.0,16.0,29.65,North,360,5.0,8.0,56,0.00,,,0.00,Rainwise IP-100,2013-04-04 07:13:00,
2013-04-04 03:17:00,29.0,16.0,29.65,North,360,6.0,15.0,55,0.00,,,0.00,Rainwise IP-100,2013-04-04 07:17:00,
2013-04-04 03:18:00,29.0,16.0,29.65,North,360,6.0,15.0,55,0.00,,,0.00,Rainwise IP-100,2013-04-04 07:18:00,
2013-04-04 03:21:00,30.0,16.0,29.67,West,270,8.0,12.0,54,0.00,,,0.00,Rainwise IP-100,2013-04-04 07:21:00,
2013-04-04 03:24:00,29.0,16.0,29.67,SW,225,2.0,12.0,55,0.00,,,0.00,Rainwise IP-100,2013-04-04 07:24:00,
2013-04-04 03:29:00,29.0,16.0,29.67,West,270,9.0,12.0,55,0.00,,,0.00,Rainwise IP-100,2013-04-04 07:29:00,
2013-04-04 03:31:00,29.0,16.0,29.67,West,270,4.0,12.0,54,0.00,,,0.00,Rainwise IP-100,2013-04-04 07:31:00,
2013-04-04 03:36:00,29.0,16.0,29.66,West,270,5.0,10.0,54,0.00,,,0.00,Rainwise IP-100,2013-04-04 07:36:00,
2013-04-04 03:39:00,29.0,16.0,29.66,NNE,22,3.0,10.0,55,0.00,,,0.00,Rainwise IP-100,2013-04-04 07:39:00,
2013-04-04 03:41:00,29.0,16.0,29.66,North,360,6.0,10.0,55,0.00,,,0.00,Rainwise IP-100,2013-04-04 07:41:00,
2013-04-04 03:44:00,29.0,14.0,29.66,West,270,10.0,10.0,53,0.00,,,0.00,Rainwise IP-100,2013-04-04 07:44:00,
2013-04-04 03:46:00,29.0,14.0,29.66,West,270,7.0,11.0,53,0.00,,,0.00,Rainwise IP-100,2013-04-04 07:46:00,
2013-04-04 03:50:00,29.0,14.0,29.66,West,270,7.0,16.0,53,0.00,,,0.00,Rainwise IP-100,2013-04-04 07:50:00,
2013-04-04 03:51:00,29.0,14.0,29.66,West,270,7.0,16.0,53,0.00,,,0.00,Rainwise IP-100,2013-04-04 07:51:00,
2013-04-04 03:54:00,29.0,14.0,29.65,East,90,3.0,12.0,53,0.00,,,0.00,Rainwise IP-100,2013-04-04 07:54:00,
2013-04-04 03:55:00,29.0,14.0,29.65,East,90,10.0,15.0,53,0.00,,,0.00,Rainwise IP-100,2013-04-04 07:55:00,
2013-04-04 03:59:00,29.0,14.0,29.65,North,360,5.0,15.0,52,0.00,,,0.00,Rainwise IP-100,2013-04-04 07:59:00,
2013-04-04 04:04:00,29.0,14.0,29.67,North,360,4.0,8.0,53,0.00,,,0.00,Rainwise IP-100,2013-04-04 08:04:00,
2013-04-04 04:09:00,29.0,14.0,29.67,WSW,247,6.0,14.0,53,0.00,,,0.00,Rainwise IP-100,2013-04-04 08:09:00,
2013-04-04 04:14:00,29.0,14.0,29.67,North,360,6.0,14.0,52,0.00,,,0.00,Rainwise IP-100,2013-04-04 08:14:00,
2013-04-04 04:16:00,29.0,14.0,29.67,North,360,5.0,15.0,52,0.00,,,0.00,Rainwise IP-100,2013-04-04 08:16:00,
2013-04-04 04:19:00,29.0,14.0,29.67,West,270,3.0,15.0,53,0.00,,,0.00,Rainwise IP-100,2013-04-04 08:19:00,
2013-04-04 04:24:00,29.0,14.0,29.67,West,270,9.0,12.0,53,0.00,,,0.00,Rainwise IP-100,2013-04-04 08:24:00,
2013-04-04 04:29:00,29.0,14.0,29.67,West,270,7.0,11.0,53,0.00,,,0.00,Rainwise IP-100,2013-04-04 08:29:00,
2013-04-04 04:34:00,29.0,14.0,29.67,WSW,247,0.0,11.0,53,0.00,,,0.00,Rainwise IP-100,2013-04-04 08:34:00,
2013-04-04 04:39:00,29.0,14.0,29.67,NE,45,2.0,10.0,53,0.00,,,0.00,Rainwise IP-100,2013-04-04 08:39:00,
2013-04-04 04:41:00,29.0,14.0,29.67,NNE,22,1.0,10.0,53,0.00,,,0.00,Rainwise IP-100,2013-04-04 08:41:00,
2013-04-04 04:46:00,29.0,14.0,29.67,North,360,1.0,12.0,52,0.00,,,0.00,Rainwise IP-100,2013-04-04 08:46:00,
2013-04-04 04:51:00,29.0,14.0,29.68,West,270,6.0,9.0,52,0.00,,,0.00,Rainwise IP-100,2013-04-04 08:51:00,
2013-04-04 04:56:00,29.0,14.0,29.68,West,270,4.0,11.0,52,0.00,,,0.00,Rainwise IP-100,2013-04-04 08:56:00,
2013-04-04 04:57:00,29.0,14.0,29.68,WSW,247,4.0,11.0,51,0.00,,,0.00,Rainwise IP-100,2013-04-04 08:57:00,
2013-04-04 05:02:00,29.0,14.0,29.68,North,360,4.0,15.0,52,0.00,,,0.00,Rainwise IP-100,2013-04-04 09:02:00,
2013-04-04 05:07:00,29.0,14.0,29.68,North,360,4.0,13.0,52,0.00,,,0.00,Rainwise IP-100,2013-04-04 09:07:00,
2013-04-04 05:09:00,29.0,14.0,29.68,West,270,3.0,9.0,52,0.00,,,0.00,Rainwise IP-100,2013-04-04 09:09:00,
2013-04-04 05:14:00,29.0,14.0,29.68,North,360,5.0,7.0,52,0.00,,,0.00,Rainwise IP-100,2013-04-04 09:14:00,
2013-04-04 05:19:00,28.0,14.0,29.68,West,270,2.0,11.0,52,0.00,,,0.00,Rainwise IP-100,2013-04-04 09:19:00,
2013-04-04 05:20:00,28.0,14.0,29.68,North,360,9.0,11.0,52,0.00,,,0.00,Rainwise IP-100,2013-04-04 09:20:00,
2013-04-04 05:21:00,29.0,14.0,29.68,West,270,8.0,11.0,51,0.00,,,0.00,Rainwise IP-100,2013-04-04 09:21:00,
2013-04-04 05:25:00,29.0,14.0,29.68,West,270,7.0,16.0,51,0.00,,,0.00,Rainwise IP-100,2013-04-04 09:25:00,
2013-04-04 05:26:00,28.0,14.0,29.68,West,270,5.0,16.0,51,0.00,,,0.00,Rainwise IP-100,2013-04-04 09:26:00,
2013-04-04 05:27:00,28.0,14.0,29.68,West,270,5.0,16.0,51,0.00,,,0.00,Rainwise IP-100,2013-04-04 09:27:00,
2013-04-04 05:31:00,29.0,14.0,29.68,North,360,4.0,13.0,50,0.00,,,0.00,Rainwise IP-100,2013-04-04 09:31:00,
2013-04-04 05:36:00,28.0,14.0,29.68,NE,45,1.0,10.0,50,0.00,,,0.00,Rainwise IP-100,2013-04-04 09:36:00,
2013-04-04 05:39:00,28.0,14.0,29.68,North,360,10.0,10.0,50,0.00,,,0.00,Rainwise IP-100,2013-04-04 09:39:00,
2013-04-04 05:41:00,28.0,14.0,29.68,West,270,3.0,10.0,51,0.00,,,0.00,Rainwise IP-100,2013-04-04 09:41:00,
2013-04-04 05:46:00,28.0,14.0,29.69,NE,45,2.0,13.0,51,0.00,,,0.00,Rainwise IP-100,2013-04-04 09:46:00,
2013-04-04 05:51:00,28.0,14.0,29.69,North,360,4.0,11.0,51,0.00,,,0.00,Rainwise IP-100,2013-04-04 09:51:00,
2013-04-04 05:56:00,28.0,14.0,29.70,North,360,7.0,7.0,51,0.00,,,0.00,Rainwise IP-100,2013-04-04 09:56:00,
2013-04-04 05:59:00,28.0,14.0,29.70,West,270,10.0,15.0,51,0.00,,,0.00,Rainwise IP-100,2013-04-04 09:59:00,
2013-04-04 06:04:00,28.0,14.0,29.69,West,270,10.0,15.0,52,0.00,,,0.00,Rainwise IP-100,2013-04-04 10:04:00,
2013-04-04 06:06:00,28.0,14.0,29.69,WSW,247,1.0,10.0,52,0.00,,,0.00,Rainwise IP-100,2013-04-04 10:06:00,
2013-04-04 06:11:00,28.0,14.0,29.70,North,360,2.0,12.0,51,0.00,,,0.00,Rainwise IP-100,2013-04-04 10:11:00,
2013-04-04 06:14:00,28.0,14.0,29.70,North,360,10.0,12.0,52,0.00,,,0.00,Rainwise IP-100,2013-04-04 10:14:00,
2013-04-04 06:16:00,28.0,14.0,29.70,North,360,10.0,11.0,52,0.00,,,0.00,Rainwise IP-100,2013-04-04 10:16:00,
2013-04-04 06:21:00,28.0,14.0,29.70,West,270,3.0,17.0,50,0.00,,,0.00,Rainwise IP-100,2013-04-04 10:21:00,
2013-04-04 06:26:00,28.0,14.0,29.70,West,270,12.0,17.0,50,0.00,,,0.00,Rainwise IP-100,2013-04-04 10:26:00,
2013-04-04 06:31:00,29.0,14.0,29.70,North,360,2.0,12.0,50,0.00,,,0.00,Rainwise IP-100,2013-04-04 10:31:00,
2013-04-04 06:36:00,29.0,14.0,29.71,SW,225,5.0,9.0,49,0.00,,,0.00,Rainwise IP-100,2013-04-04 10:36:00,
2013-04-04 06:41:00,29.0,14.0,29.72,West,270,9.0,15.0,48,0.00,,,0.00,Rainwise IP-100,2013-04-04 10:41:00,
2013-04-04 06:46:00,29.0,14.0,29.72,NNE,22,4.0,11.0,48,0.00,,,0.00,Rainwise IP-100,2013-04-04 10:46:00,
2013-04-04 06:51:00,29.0,14.0,29.72,West,270,6.0,13.0,48,0.00,,,0.00,Rainwise IP-100,2013-04-04 10:51:00,
2013-04-04 06:54:00,29.0,14.0,29.74,West,270,6.0,13.0,47,0.00,,,0.00,Rainwise IP-100,2013-04-04 10:54:00,
2013-04-04 06:59:00,30.0,14.0,29.74,West,270,8.0,10.0,46,0.00,,,0.00,Rainwise IP-100,2013-04-04 10:59:00,
2013-04-04 07:01:00,30.0,14.0,29.74,West,270,10.0,12.0,45,0.00,,,0.00,Rainwise IP-100,2013-04-04 11:01:00,
2013-04-04 07:04:00,30.0,14.0,29.75,West,270,7.0,12.0,45,0.00,,,0.00,Rainwise IP-100,2013-04-04 11:04:00,
2013-04-04 07:09:00,30.0,14.0,29.75,WSW,247,3.0,16.0,45,0.00,,,0.00,Rainwise IP-100,2013-04-04 11:09:00,
2013-04-04 07:14:00,31.0,11.0,29.77,West,270,10.0,15.0,43,0.00,,,0.00,Rainwise IP-100,2013-04-04 11:14:00,
2013-04-04 07:17:00,31.0,11.0,29.77,West,270,3.0,15.0,43,0.00,,,0.00,Rainwise IP-100,2013-04-04 11:17:00,
2013-04-04 07:19:00,31.0,11.0,29.77,North,360,2.0,12.0,43,0.00,,,0.00,Rainwise IP-100,2013-04-04 11:19:00,
2013-04-04 07:24:00,31.0,11.0,29.78,West,270,8.0,17.0,44,0.00,,,0.00,Rainwise IP-100,2013-04-04 11:24:00,
2013-04-04 07:26:00,32.0,14.0,29.78,West,270,7.0,17.0,43,0.00,,,0.00,Rainwise IP-100,2013-04-04 11:26:00,
2013-04-04 07:31:00,32.0,14.0,29.80,South,180,2.0,14.0,42,0.00,,,0.00,Rainwise IP-100,2013-04-04 11:31:00,
2013-04-04 07:34:00,32.0,14.0,29.80,North,360,4.0,13.0,42,0.00,,,0.00,Rainwise IP-100,2013-04-04 11:34:00,
2013-04-04 07:36:00,32.0,14.0,29.80,WSW,247,2.0,16.0,42,0.00,,,0.00,Rainwise IP-100,2013-04-04 11:36:00,
2013-04-04 07:39:00,32.0,11.0,29.80,North,360,10.0,16.0,39,0.00,,,0.00,Rainwise IP-100,2013-04-04 11:39:00,
2013-04-04 07:44:00,32.0,11.0,29.79,West,270,4.0,17.0,39,0.00,,,0.00,Rainwise IP-100,2013-04-04 11:44:00,
2013-04-04 07:46:00,33.0,14.0,29.79,West,270,6.0,11.0,41,0.00,,,0.00,Rainwise IP-100,2013-04-04 11:46:00,
2013-04-04 07:51:00,33.0,11.0,29.80,West,270,9.0,9.0,39,0.00,,,0.00,Rainwise IP-100,2013-04-04 11:51:00,
2013-04-04 07:56:00,33.0,11.0,29.80,West,270,6.0,11.0,37,0.00,,,0.00,Rainwise IP-100,2013-04-04 11:56:00,
2013-04-04 08:01:00,34.0,11.0,29.83,West,270,5.0,13.0,37,0.00,,,0.00,Rainwise IP-100,2013-04-04 12:01:00,
2013-04-04 08:02:00,34.0,11.0,29.83,North,360,15.0,15.0,37,0.00,,,0.00,Rainwise IP-100,2013-04-04 12:02:00,
2013-04-04 08:04:00,34.0,14.0,29.83,West,270,4.0,15.0,38,0.00,,,0.00,Rainwise IP-100,2013-04-04 12:04:00,
2013-04-04 08:09:00,34.0,14.0,29.83,West,270,5.0,15.0,38,0.00,,,0.00,Rainwise IP-100,2013-04-04 12:09:00,
2013-04-04 08:14:00,34.0,11.0,29.82,East,90,1.0,19.0,36,0.00,,,0.00,Rainwise IP-100,2013-04-04 12:14:00,
2013-04-04 08:19:00,34.0,11.0,29.82,West,270,4.0,12.0,35,0.00,,,0.00,Rainwise IP-100,2013-04-04 12:19:00,
2013-04-04 08:24:00,35.0,11.0,29.82,North,360,10.0,14.0,34,0.00,,,0.00,Rainwise IP-100,2013-04-04 12:24:00,
2013-04-04 08:29:00,34.0,8.0,29.82,West,270,8.0,13.0,32,0.00,,,0.00,Rainwise IP-100,2013-04-04 12:29:00,
2013-04-04 08:31:00,35.0,11.0,29.82,SSW,202,3.0,13.0,33,0.00,,,0.00,Rainwise IP-100,2013-04-04 12:31:00,
2013-04-04 08:34:00,35.0,11.0,29.82,West,270,5.0,11.0,34,0.00,,,0.00,Rainwise IP-100,2013-04-04 12:34:00,
2013-04-04 08:36:00,35.0,11.0,29.82,NE,45,2.0,12.0,34,0.00,,,0.00,Rainwise IP-100,2013-04-04 12:36:00,
2013-04-04 08:41:00,35.0,8.0,29.81,West,270,9.0,21.0,31,0.00,,,0.00,Rainwise IP-100,2013-04-04 12:41:00,
2013-04-04 08:46:00,35.0,8.0,29.81,West,270,8.0,17.0,31,0.00,,,0.00,Rainwise IP-100,2013-04-04 12:46:00,
2013-04-04 08:51:00,35.0,11.0,29.82,SW,225,4.0,18.0,35,0.00,,,0.00,Rainwise IP-100,2013-04-04 12:51:00,
2013-04-04 08:56:00,35.0,8.0,29.82,West,270,11.0,18.0,29,0.00,,,0.00,Rainwise IP-100,2013-04-04 12:56:00,
2013-04-04 09:01:00,36.0,8.0,29.83,West,270,19.0,20.0,30,0.00,,,0.00,Rainwise IP-100,2013-04-04 13:01:00,
2013-04-04 09:06:00,36.0,11.0,29.83,West,270,6.0,21.0,32,0.00,,,0.00,Rainwise IP-100,2013-04-04 13:06:00,
2013-04-04 09:09:00,37.0,8.0,29.83,North,360,12.0,13.0,29,0.00,,,0.00,Rainwise IP-100,2013-04-04 13:09:00,
2013-04-04 09:14:00,36.0,8.0,29.83,West,270,8.0,19.0,27,0.00,,,0.00,Rainwise IP-100,2013-04-04 13:14:00,
2013-04-04 09:16:00,35.0,8.0,29.83,West,270,9.0,22.0,28,0.00,,,0.00,Rainwise IP-100,2013-04-04 13:16:00,
2013-04-04 09:19:00,36.0,8.0,29.83,West,270,7.0,22.0,29,0.00,,,0.00,Rainwise IP-100,2013-04-04 13:19:00,
2013-04-04 09:24:00,37.0,11.0,29.85,West,270,9.0,13.0,30,0.00,,,0.00,Rainwise IP-100,2013-04-04 13:24:00,
2013-04-04 09:29:00,37.0,11.0,29.85,North,360,5.0,14.0,32,0.00,,,0.00,Rainwise IP-100,2013-04-04 13:29:00,
2013-04-04 09:34:00,38.0,11.0,29.85,SSW,202,4.0,15.0,31,0.00,,,0.00,Rainwise IP-100,2013-04-04 13:34:00,
2013-04-04 09:36:00,37.0,8.0,29.85,WSW,247,7.0,20.0,29,0.00,,,0.00,Rainwise IP-100,2013-04-04 13:36:00,
2013-04-04 09:41:00,37.0,8.0,29.85,West,270,15.0,18.0,28,0.00,,,0.00,Rainwise IP-100,2013-04-04 13:41:00,
2013-04-04 09:44:00,37.0,8.0,29.85,West,270,12.0,26.0,29,0.00,,,0.00,Rainwise IP-100,2013-04-04 13:44:00,
2013-04-04 09:46:00,37.0,8.0,29.85,West,270,16.0,26.0,28,0.00,,,0.00,Rainwise IP-100,2013-04-04 13:46:00,
2013-04-04 09:51:00,38.0,14.0,29.85,West,270,6.0,16.0,34,0.00,,,0.00,Rainwise IP-100,2013-04-04 13:51:00,
2013-04-04 09:56:00,38.0,8.0,29.84,West,270,6.0,14.0,27,0.00,,,0.00,Rainwise IP-100,2013-04-04 13:56:00,
2013-04-04 10:01:00,39.0,11.0,29.83,West,270,12.0,14.0,30,0.00,,,0.00,Rainwise IP-100,2013-04-04 14:01:00,
2013-04-04 10:06:00,39.0,11.0,29.83,West,270,9.0,16.0,29,0.00,,,0.00,Rainwise IP-100,2013-04-04 14:06:00,
2013-04-04 10:11:00,39.0,8.0,29.83,West,270,8.0,17.0,27,0.00,,,0.00,Rainwise IP-100,2013-04-04 14:11:00,
2013-04-04 10:16:00,39.0,11.0,29.83,West,270,13.0,16.0,28,0.00,,,0.00,Rainwise IP-100,2013-04-04 14:16:00,
2013-04-04 10:21:00,39.0,8.0,29.83,West,270,4.0,22.0,27,0.00,,,0.00,Rainwise IP-100,2013-04-04 14:21:00,
2013-04-04 10:26:00,40.0,11.0,29.84,North,360,8.0,13.0,26,0.00,,,0.00,Rainwise IP-100,2013-04-04 14:26:00,
2013-04-04 10:31:00,40.0,11.0,29.83,North,360,4.0,16.0,27,0.00,,,0.00,Rainwise IP-100,2013-04-04 14:31:00,
2013-04-04 10:34:00,40.0,11.0,29.83,West,270,6.0,16.0,26,0.00,,,0.00,Rainwise IP-100,2013-04-04 14:34:00,
2013-04-04 10:36:00,40.0,11.0,29.83,West,270,16.0,16.0,26,0.00,,,0.00,Rainwise IP-100,2013-04-04 14:36:00,
2013-04-04 10:39:00,39.0,8.0,29.83,West,270,6.0,27.0,27,0.00,,,0.00,Rainwise IP-100,2013-04-04 14:39:00,
2013-04-04 10:41:00,39.0,8.0,29.83,West,270,12.0,27.0,26,0.00,,,0.00,Rainwise IP-100,2013-04-04 14:41:00,
2013-04-04 10:44:00,39.0,8.0,29.83,West,270,10.0,16.0,26,0.00,,,0.00,Rainwise IP-100,2013-04-04 14:44:00,
2013-04-04 10:46:00,39.0,8.0,29.83,West,270,14.0,16.0,26,0.00,,,0.00,Rainwise IP-100,2013-04-04 14:46:00,
2013-04-04 10:51:00,39.0,8.0,29.83,West,270,14.0,16.0,26,0.00,,,0.00,Rainwise IP-100,2013-04-04 14:51:00,
2013-04-04 10:56:00,40.0,8.0,29.83,West,270,12.0,16.0,24,0.00,,,0.00,Rainwise IP-100,2013-04-04 14:56:00,
2013-04-04 10:59:00,40.0,8.0,29.83,West,270,6.0,12.0,24,0.00,,,0.00,Rainwise IP-100,2013-04-04 14:59:00,
2013-04-04 11:01:00,40.0,8.0,29.83,West,270,10.0,12.0,24,0.00,,,0.00,Rainwise IP-100,2013-04-04 15:01:00,
2013-04-04 11:06:00,40.0,8.0,29.83,West,270,10.0,21.0,25,0.00,,,0.00,Rainwise IP-100,2013-04-04 15:06:00,
2013-04-04 11:11:00,41.0,11.0,29.83,SW,225,3.0,16.0,27,0.00,,,0.00,Rainwise IP-100,2013-04-04 15:11:00,
2013-04-04 11:14:00,40.0,8.0,29.83,West,270,17.0,20.0,25,0.00,,,0.00,Rainwise IP-100,2013-04-04 15:14:00,
2013-04-04 11:16:00,40.0,11.0,29.83,West,270,7.0,20.0,26,0.00,,,0.00,Rainwise IP-100,2013-04-04 15:16:00,
2013-04-04 11:21:00,40.0,8.0,29.83,West,270,12.0,20.0,25,0.00,,,0.00,Rainwise IP-100,2013-04-04 15:21:00,
2013-04-04 11:27:00,41.0,11.0,29.82,West,270,12.0,15.0,25,0.00,,,0.00,Rainwise IP-100,2013-04-04 15:27:00,
2013-04-04 11:30:00,41.0,11.0,29.82,West,270,13.0,15.0,25,0.00,,,0.00,Rainwise IP-100,2013-04-04 15:30:00,
2013-04-04 11:32:00,41.0,11.0,29.82,West,270,12.0,15.0,25,0.00,,,0.00,Rainwise IP-100,2013-04-04 15:32:00,
2013-04-04 11:37:00,41.0,11.0,29.82,West,270,12.0,15.0,25,0.00,,,0.00,Rainwise IP-100,2013-04-04 15:37:00,
2013-04-04 11:41:00,41.0,11.0,29.82,West,270,12.0,15.0,25,0.00,,,0.00,Rainwise IP-100,2013-04-04 15:41:00,
2013-04-04 11:44:00,41.0,11.0,29.82,West,270,7.0,15.0,25,0.00,,,0.00,Rainwise IP-100,2013-04-04 15:44:00,
2013-04-04 11:49:00,43.0,8.0,29.81,SW,225,8.0,19.0,23,0.00,,,0.00,Rainwise IP-100,2013-04-04 15:49:00,
2013-04-04 11:51:00,43.0,8.0,29.81,West,270,7.0,19.0,23,0.00,,,0.00,Rainwise IP-100,2013-04-04 15:51:00,
2013-04-04 11:56:00,43.0,8.0,29.80,West,270,8.0,19.0,23,0.00,,,0.00,Rainwise IP-100,2013-04-04 15:56:00,
2013-04-04 12:19:00,45.0,8.0,29.80,West,270,8.0,10.0,21,0.00,,,0.00,Rainwise IP-100,2013-04-04 16:19:00,
2013-04-04 12:24:00,45.0,8.0,29.80,West,270,13.0,13.0,20,0.00,,,0.00,Rainwise IP-100,2013-04-04 16:24:00,
2013-04-04 12:26:00,45.0,8.0,29.80,West,270,13.0,13.0,20,0.00,,,0.00,Rainwise IP-100,2013-04-04 16:26:00,
2013-04-04 12:31:00,45.0,8.0,29.79,North,360,4.0,13.0,21,0.00,,,0.00,Rainwise IP-100,2013-04-04 16:31:00,
2013-04-04 12:36:00,46.0,11.0,29.79,SSE,157,1.0,11.0,24,0.00,,,0.00,Rainwise IP-100,2013-04-04 16:36:00,
2013-04-04 12:39:00,46.0,11.0,29.79,West,270,12.0,12.0,22,0.00,,,0.00,Rainwise IP-100,2013-04-04 16:39:00,
2013-04-04 12:44:00,46.0,8.0,29.78,North,360,4.0,13.0,20,0.00,,,0.00,Rainwise IP-100,2013-04-04 16:44:00,
2013-04-04 12:49:00,46.0,8.0,29.78,West,270,7.0,16.0,20,0.00,,,0.00,Rainwise IP-100,2013-04-04 16:49:00,
2013-04-04 12:54:00,46.0,8.0,29.77,North,360,4.0,18.0,19,0.00,,,0.00,Rainwise IP-100,2013-04-04 16:54:00,
2013-04-04 12:59:00,46.0,8.0,29.77,West,270,1.0,13.0,20,0.00,,,0.00,Rainwise IP-100,2013-04-04 16:59:00,
2013-04-04 13:04:00,47.0,16.0,29.76,West,270,5.0,11.0,28,0.00,,,0.00,Rainwise IP-100,2013-04-04 17:04:00,
2013-04-04 13:06:00,47.0,11.0,29.76,WSW,247,9.0,9.0,21,0.00,,,0.00,Rainwise IP-100,2013-04-04 17:06:00,
2013-04-04 13:09:00,47.0,11.0,29.76,SW,225,5.0,17.0,22,0.00,,,0.00,Rainwise IP-100,2013-04-04 17:09:00,
2013-04-04 13:11:00,47.0,8.0,29.76,West,270,6.0,17.0,20,0.00,,,0.00,Rainwise IP-100,2013-04-04 17:11:00,
2013-04-04 13:14:00,46.0,11.0,29.76,West,270,3.0,15.0,22,0.00,,,0.00,Rainwise IP-100,2013-04-04 17:14:00,
2013-04-04 13:16:00,46.0,8.0,29.76,West,270,6.0,15.0,18,0.00,,,0.00,Rainwise IP-100,2013-04-04 17:16:00,
2013-04-04 13:21:00,45.0,8.0,29.77,West,270,9.0,15.0,19,0.00,,,0.00,Rainwise IP-100,2013-04-04 17:21:00,
2013-04-04 13:24:00,44.0,8.0,29.77,West,270,10.0,14.0,20,0.00,,,0.00,Rainwise IP-100,2013-04-04 17:24:00,
2013-04-04 13:29:00,45.0,11.0,29.77,NNE,22,3.0,14.0,22,0.00,,,0.00,Rainwise IP-100,2013-04-04 17:29:00,
2013-04-04 13:32:00,46.0,8.0,29.77,ENE,67,9.0,10.0,20,0.00,,,0.00,Rainwise IP-100,2013-04-04 17:32:00,
2013-04-04 13:36:00,45.0,8.0,29.76,West,270,7.0,10.0,19,0.00,,,0.00,Rainwise IP-100,2013-04-04 17:36:00,
2013-04-04 13:37:00,45.0,8.0,29.76,North,360,8.0,11.0,19,0.00,,,0.00,Rainwise IP-100,2013-04-04 17:37:00,
2013-04-04 13:42:00,46.0,11.0,29.76,West,270,5.0,11.0,23,0.00,,,0.00,Rainwise IP-100,2013-04-04 17:42:00,
2013-04-04 13:47:00,46.0,11.0,29.76,WSW,247,14.0,14.0,22,0.00,,,0.00,Rainwise IP-100,2013-04-04 17:47:00,
2013-04-04 13:52:00,46.0,8.0,29.77,West,270,8.0,14.0,19,0.00,,,0.00,Rainwise IP-100,2013-04-04 17:52:00,
2013-04-04 13:57:00,46.0,11.0,29.77,West,270,6.0,15.0,21,0.00,,,0.00,Rainwise IP-100,2013-04-04 17:57:00,
2013-04-04 14:01:00,46.0,11.0,29.76,SW,225,7.0,17.0,22,0.00,,,0.00,Rainwise IP-100,2013-04-04 18:01:00,
2013-04-04 14:04:00,45.0,8.0,29.76,West,270,10.0,16.0,20,0.00,,,0.00,Rainwise IP-100,2013-04-04 18:04:00,
2013-04-04 14:09:00,46.0,8.0,29.76,West,270,7.0,13.0,19,0.00,,,0.00,Rainwise IP-100,2013-04-04 18:09:00,
2013-04-04 14:12:00,47.0,11.0,29.77,West,270,10.0,19.0,21,0.00,,,0.00,Rainwise IP-100,2013-04-04 18:12:00,
2013-04-04 14:17:00,47.0,8.0,29.77,West,270,5.0,12.0,18,0.00,,,0.00,Rainwise IP-100,2013-04-04 18:17:00,
2013-04-04 14:21:00,48.0,14.0,29.77,West,270,3.0,12.0,24,0.00,,,0.00,Rainwise IP-100,2013-04-04 18:21:00,
2013-04-04 14:22:00,48.0,14.0,29.77,WSW,247,5.0,12.0,24,0.00,,,0.00,Rainwise IP-100,2013-04-04 18:22:00,
2013-04-04 14:24:00,48.0,14.0,29.77,West,270,8.0,10.0,23,0.00,,,0.00,Rainwise IP-100,2013-04-04 18:24:00,
2013-04-04 14:26:00,47.0,8.0,29.77,West,270,10.0,17.0,18,0.00,,,0.00,Rainwise IP-100,2013-04-04 18:26:00,
2013-04-04 14:29:00,48.0,14.0,29.77,WSW,247,8.0,17.0,23,0.00,,,0.00,Rainwise IP-100,2013-04-04 18:29:00,
2013-04-04 14:34:00,48.0,14.0,29.77,West,270,7.0,15.0,23,0.00,,,0.00,Rainwise IP-100,2013-04-04 18:34:00,
2013-04-04 14:39:00,48.0,11.0,29.77,West,270,1.0,15.0,20,0.00,,,0.00,Rainwise IP-100,2013-04-04 18:39:00,
2013-04-04 14:44:00,48.0,8.0,29.76,West,270,8.0,16.0,19,0.00,,,0.00,Rainwise IP-100,2013-04-04 18:44:00,
2013-04-04 14:49:00,49.0,14.0,29.76,SW,225,4.0,13.0,22,0.00,,,0.00,Rainwise IP-100,2013-04-04 18:49:00,
2013-04-04 14:51:00,49.0,8.0,29.76,WSW,247,10.0,14.0,18,0.00,,,0.00,Rainwise IP-100,2013-04-04 18:51:00,
2013-04-04 14:54:00,48.0,8.0,29.76,West,270,15.0,18.0,17,0.00,,,0.00,Rainwise IP-100,2013-04-04 18:54:00,
2013-04-04 14:59:00,48.0,16.0,29.76,North,360,2.0,18.0,25,0.00,,,0.00,Rainwise IP-100,2013-04-04 18:59:00,
2013-04-04 15:01:00,49.0,11.0,29.76,North,360,0.0,18.0,20,0.00,,,0.00,Rainwise IP-100,2013-04-04 19:01:00,
2013-04-04 15:05:00,48.0,8.0,29.75,West,270,13.0,20.0,18,0.00,,,0.00,Rainwise IP-100,2013-04-04 19:05:00,
2013-04-04 15:06:00,48.0,8.0,29.75,West,270,20.0,20.0,17,0.00,,,0.00,Rainwise IP-100,2013-04-04 19:06:00,
2013-04-04 15:11:00,48.0,11.0,29.75,North,360,6.0,22.0,22,0.00,,,0.00,Rainwise IP-100,2013-04-04 19:11:00,
2013-04-04 15:14:00,48.0,14.0,29.75,West,270,6.0,16.0,23,0.00,,,0.00,Rainwise IP-100,2013-04-04 19:14:00,
2013-04-04 15:16:00,48.0,8.0,29.75,West,270,10.0,17.0,19,0.00,,,0.00,Rainwise IP-100,2013-04-04 19:16:00,
2013-04-04 15:21:00,49.0,11.0,29.73,WSW,247,7.0,18.0,21,0.00,,,0.00,Rainwise IP-100,2013-04-04 19:21:00,
2013-04-04 15:24:00,48.0,8.0,29.73,North,360,5.0,18.0,19,0.00,,,0.00,Rainwise IP-100,2013-04-04 19:24:00,
2013-04-04 15:29:00,48.0,11.0,29.73,West,270,6.0,17.0,20,0.00,,,0.00,Rainwise IP-100,2013-04-04 19:29:00,
2013-04-04 15:31:00,49.0,14.0,29.73,WSW,247,8.0,15.0,22,0.00,,,0.00,Rainwise IP-100,2013-04-04 19:31:00,
2013-04-04 15:34:00,49.0,11.0,29.73,SW,225,18.0,19.0,20,0.00,,,0.00,Rainwise IP-100,2013-04-04 19:34:00,
2013-04-04 15:37:00,49.0,11.0,29.73,SW,225,10.0,19.0,21,0.00,,,0.00,Rainwise IP-100,2013-04-04 19:37:00,
2013-04-04 15:39:00,49.0,14.0,29.73,WSW,247,13.0,19.0,23,0.00,,,0.00,Rainwise IP-100,2013-04-04 19:39:00,
2013-04-04 15:44:00,50.0,16.0,29.73,SW,225,9.0,15.0,26,0.00,,,0.00,Rainwise IP-100,2013-04-04 19:44:00,
2013-04-04 15:49:00,50.0,16.0,29.73,West,270,6.0,17.0,25,0.00,,,0.00,Rainwise IP-100,2013-04-04 19:49:00,
2013-04-04 15:54:00,50.0,18.0,29.73,SW,225,10.0,16.0,28,0.00,,,0.00,Rainwise IP-100,2013-04-04 19:54:00,
2013-04-04 15:59:00,49.0,21.0,29.73,West,270,9.0,16.0,30,0.00,,,0.00,Rainwise IP-100,2013-04-04 19:59:00,
2013-04-04 16:04:00,49.0,21.0,29.73,West,270,10.0,16.0,31,0.00,,,0.00,Rainwise IP-100,2013-04-04 20:04:00,
2013-04-04 16:06:00,49.0,21.0,29.73,SW,225,12.0,16.0,32,0.00,,,0.00,Rainwise IP-100,2013-04-04 20:06:00,
2013-04-04 16:09:00,49.0,23.0,29.73,SW,225,19.0,21.0,35,0.00,,,0.00,Rainwise IP-100,2013-04-04 20:09:00,
2013-04-04 16:14:00,48.0,23.0,29.72,SSW,202,7.0,19.0,34,0.00,,,0.00,Rainwise IP-100,2013-04-04 20:14:00,
2013-04-04 16:16:00,48.0,23.0,29.72,SW,225,18.0,19.0,36,0.00,,,0.00,Rainwise IP-100,2013-04-04 20:16:00,
2013-04-04 16:21:00,47.0,21.0,29.72,West,270,13.0,20.0,33,0.00,,,0.00,Rainwise IP-100,2013-04-04 20:21:00,
2013-04-04 16:26:00,47.0,24.0,29.72,SW,225,13.0,21.0,40,0.00,,,0.00,Rainwise IP-100,2013-04-04 20:26:00,
2013-04-04 16:27:00,47.0,24.0,29.72,SSW,202,9.0,21.0,40,0.00,,,0.00,Rainwise IP-100,2013-04-04 20:27:00,
2013-04-04 16:29:00,47.0,24.0,29.72,SSW,202,15.0,21.0,40,0.00,,,0.00,Rainwise IP-100,2013-04-04 20:29:00,
2013-04-04 16:31:00,47.0,24.0,29.72,SW,225,12.0,19.0,40,0.00,,,0.00,Rainwise IP-100,2013-04-04 20:31:00,
2013-04-04 16:34:00,47.0,23.0,29.72,SW,225,10.0,19.0,38,0.00,,,0.00,Rainwise IP-100,2013-04-04 20:34:00,
2013-04-04 16:39:00,47.0,24.0,29.72,SW,225,12.0,18.0,42,0.00,,,0.00,Rainwise IP-100,2013-04-04 20:39:00,
2013-04-04 16:44:00,46.0,24.0,29.71,SW,225,9.0,19.0,43,0.00,,,0.00,Rainwise IP-100,2013-04-04 20:44:00,
2013-04-04 16:49:00,46.0,24.0,29.71,SSW,202,15.0,19.0,43,0.00,,,0.00,Rainwise IP-100,2013-04-04 20:49:00,
2013-04-04 16:54:00,46.0,24.0,29.71,SW,225,4.0,16.0,43,0.00,,,0.00,Rainwise IP-100,2013-04-04 20:54:00,
2013-04-04 16:59:00,46.0,24.0,29.71,SSW,202,10.0,12.0,41,0.00,,,0.00,Rainwise IP-100,2013-04-04 20:59:00,
2013-04-04 17:04:00,46.0,23.0,29.70,WSW,247,10.0,22.0,40,0.00,,,0.00,Rainwise IP-100,2013-04-04 21:04:00,
2013-04-04 17:09:00,46.0,24.0,29.70,SW,225,8.0,18.0,41,0.00,,,0.00,Rainwise IP-100,2013-04-04 21:09:00,
2013-04-04 17:12:00,47.0,24.0,29.70,WSW,247,5.0,17.0,42,0.00,,,0.00,Rainwise IP-100,2013-04-04 21:12:00,
2013-04-04 17:14:00,46.0,21.0,29.70,West,270,9.0,16.0,35,0.00,,,0.00,Rainwise IP-100,2013-04-04 21:14:00,
2013-04-04 17:17:00,46.0,23.0,29.70,West,270,10.0,17.0,40,0.00,,,0.00,Rainwise IP-100,2013-04-04 21:17:00,
2013-04-04 17:19:00,46.0,24.0,29.70,SW,225,9.0,17.0,41,0.00,,,0.00,Rainwise IP-100,2013-04-04 21:19:00,
2013-04-04 17:24:00,46.0,24.0,29.70,West,270,7.0,10.0,42,0.00,,,0.00,Rainwise IP-100,2013-04-04 21:24:00,
2013-04-04 17:26:00,47.0,24.0,29.70,WSW,247,9.0,14.0,40,0.00,,,0.00,Rainwise IP-100,2013-04-04 21:26:00,
2013-04-04 17:29:00,46.0,24.0,29.70,SW,225,8.0,19.0,41,0.00,,,0.00,Rainwise IP-100,2013-04-04 21:29:00,
2013-04-04 17:31:00,46.0,23.0,29.69,West,270,7.0,19.0,38,0.00,,,0.00,Rainwise IP-100,2013-04-04 21:31:00,
2013-04-04 17:34:00,46.0,24.0,29.69,SW,225,9.0,19.0,41,0.00,,,0.00,Rainwise IP-100,2013-04-04 21:34:00,
2013-04-04 17:36:00,46.0,24.0,29.69,SSE,157,5.0,12.0,43,0.00,,,0.00,Rainwise IP-100,2013-04-04 21:36:00,
2013-04-04 17:41:00,46.0,28.0,29.69,West,270,2.0,13.0,47,0.00,,,0.00,Rainwise IP-100,2013-04-04 21:41:00,
2013-04-04 17:44:00,46.0,26.0,29.69,WSW,247,6.0,11.0,45,0.00,,,0.00,Rainwise IP-100,2013-04-04 21:44:00,
2013-04-04 17:49:00,45.0,24.0,29.69,West,270,6.0,8.0,42,0.00,,,0.00,Rainwise IP-100,2013-04-04 21:49:00,
2013-04-04 17:51:00,46.0,26.0,29.69,SW,225,10.0,15.0,44,0.00,,,0.00,Rainwise IP-100,2013-04-04 21:51:00,
2013-04-04 17:54:00,46.0,26.0,29.69,SW,225,7.0,15.0,45,0.00,,,0.00,Rainwise IP-100,2013-04-04 21:54:00,
2013-04-04 17:59:00,45.0,26.0,29.69,SW,225,12.0,17.0,45,0.00,,,0.00,Rainwise IP-100,2013-04-04 21:59:00,
2013-04-04 18:01:00,45.0,26.0,29.69,SSW,202,6.0,17.0,47,0.00,,,0.00,Rainwise IP-100,2013-04-04 22:01:00,
2013-04-04 18:06:00,44.0,24.0,29.69,WSW,247,9.0,15.0,46,0.00,,,0.00,Rainwise IP-100,2013-04-04 22:06:00,
2013-04-04 18:11:00,44.0,24.0,29.69,WSW,247,13.0,13.0,45,0.00,,,0.00,Rainwise IP-100,2013-04-04 22:11:00,
2013-04-04 18:16:00,44.0,26.0,29.69,SW,225,11.0,15.0,48,0.00,,,0.00,Rainwise IP-100,2013-04-04 22:16:00,
2013-04-04 18:21:00,43.0,24.0,29.68,WSW,247,10.0,18.0,48,0.00,,,0.00,Rainwise IP-100,2013-04-04 22:21:00,
2013-04-04 18:26:00,42.0,26.0,29.68,SW,225,2.0,17.0,50,0.00,,,0.00,Rainwise IP-100,2013-04-04 22:26:00,
2013-04-04 18:31:00,42.0,24.0,29.69,WSW,247,10.0,17.0,49,0.00,,,0.00,Rainwise IP-100,2013-04-04 22:31:00,
2013-04-04 18:36:00,41.0,26.0,29.69,SW,225,7.0,17.0,54,0.00,,,0.00,Rainwise IP-100,2013-04-04 22:36:00,
2013-04-04 18:41:00,41.0,28.0,29.69,SW,225,5.0,12.0,56,0.00,,,0.00,Rainwise IP-100,2013-04-04 22:41:00,
2013-04-04 18:44:00,41.0,26.0,29.69,SW,225,7.0,14.0,54,0.00,,,0.00,Rainwise IP-100,2013-04-04 22:44:00,
2013-04-04 18:46:00,41.0,26.0,29.69,West,270,4.0,14.0,54,0.00,,,0.00,Rainwise IP-100,2013-04-04 22:46:00,
2013-04-04 18:49:00,41.0,26.0,29.69,WSW,247,8.0,17.0,54,0.00,,,0.00,Rainwise IP-100,2013-04-04 22:49:00,
2013-04-04 18:54:00,40.0,28.0,29.69,SW,225,4.0,17.0,58,0.00,,,0.00,Rainwise IP-100,2013-04-04 22:54:00,
2013-04-04 18:59:00,40.0,28.0,29.69,SW,225,9.0,11.0,60,0.00,,,0.00,Rainwise IP-100,2013-04-04 22:59:00,
2013-04-04 19:04:00,40.0,28.0,29.69,SSW,202,7.0,14.0,59,0.00,,,0.00,Rainwise IP-100,2013-04-04 23:04:00,
2013-04-04 19:09:00,39.0,26.0,29.69,SW,225,9.0,11.0,59,0.00,,,0.00,Rainwise IP-100,2013-04-04 23:09:00,
2013-04-04 19:11:00,39.0,26.0,29.69,WSW,247,7.0,10.0,59,0.00,,,0.00,Rainwise IP-100,2013-04-04 23:11:00,
2013-04-04 19:14:00,39.0,26.0,29.69,West,270,6.0,10.0,60,0.00,,,0.00,Rainwise IP-100,2013-04-04 23:14:00,
2013-04-04 19:19:00,39.0,26.0,29.69,West,270,4.0,15.0,60,0.00,,,0.00,Rainwise IP-100,2013-04-04 23:19:00,
2013-04-04 19:24:00,39.0,26.0,29.69,West,270,10.0,12.0,59,0.00,,,0.00,Rainwise IP-100,2013-04-04 23:24:00,
2013-04-04 19:26:00,39.0,26.0,29.69,West,270,7.0,12.0,59,0.00,,,0.00,Rainwise IP-100,2013-04-04 23:26:00,
2013-04-04 19:28:00,39.0,26.0,29.69,West,270,4.0,12.0,60,0.00,,,0.00,Rainwise IP-100,2013-04-04 23:28:00,
2013-04-04 19:34:00,39.0,26.0,29.69,West,270,4.0,7.0,60,0.00,,,0.00,Rainwise IP-100,2013-04-04 23:34:00,
2013-04-04 19:39:00,39.0,26.0,29.69,West,270,4.0,7.0,60,0.00,,,0.00,Rainwise IP-100,2013-04-04 23:39:00,
2013-04-04 19:42:00,39.0,28.0,29.69,SW,225,6.0,7.0,61,0.00,,,0.00,Rainwise IP-100,2013-04-04 23:42:00,
2013-04-04 19:46:00,38.0,26.0,29.69,WSW,247,7.0,11.0,63,0.00,,,0.00,Rainwise IP-100,2013-04-04 23:46:00,
2013-04-04 19:51:00,39.0,28.0,29.69,WSW,247,11.0,11.0,62,0.00,,,0.00,Rainwise IP-100,2013-04-04 23:51:00,
2013-04-04 19:54:00,38.0,26.0,29.69,West,270,9.0,12.0,63,0.00,,,0.00,Rainwise IP-100,2013-04-04 23:54:00,
2013-04-04 19:59:00,39.0,28.0,29.69,WSW,247,7.0,11.0,63,0.00,,,0.00,Rainwise IP-100,2013-04-04 23:59:00,
2013-04-04 20:01:00,39.0,28.0,29.68,West,270,7.0,11.0,63,0.00,,,0.00,Rainwise IP-100,2013-04-05 00:01:00,
2013-04-04 20:06:00,38.0,28.0,29.68,WSW,247,5.0,12.0,66,0.00,,,0.00,Rainwise IP-100,2013-04-05 00:06:00,
2013-04-04 20:09:00,39.0,29.0,29.68,WSW,247,13.0,14.0,65,0.00,,,0.00,Rainwise IP-100,2013-04-05 00:09:00,
2013-04-04 20:11:00,39.0,29.0,29.68,WSW,247,8.0,14.0,65,0.00,,,0.00,Rainwise IP-100,2013-04-05 00:11:00,
2013-04-04 20:14:00,39.0,29.0,29.69,West,270,6.0,13.0,66,0.00,,,0.00,Rainwise IP-100,2013-04-05 00:14:00,
2013-04-04 20:19:00,39.0,29.0,29.69,SW,225,6.0,12.0,67,0.00,,,0.00,Rainwise IP-100,2013-04-05 00:19:00,
2013-04-04 20:24:00,38.0,29.0,29.68,SW,225,6.0,8.0,68,0.00,,,0.00,Rainwise IP-100,2013-04-05 00:24:00,
2013-04-04 20:26:00,38.0,29.0,29.68,SW,225,3.0,9.0,68,0.00,,,0.00,Rainwise IP-100,2013-04-05 00:26:00,
2013-04-04 20:29:00,38.0,29.0,29.68,WSW,247,9.0,9.0,70,0.00,,,0.00,Rainwise IP-100,2013-04-05 00:29:00,
2013-04-04 20:34:00,38.0,29.0,29.68,SSW,202,1.0,10.0,70,0.00,,,0.00,Rainwise IP-100,2013-04-05 00:34:00,
2013-04-04 20:39:00,38.0,29.0,29.68,SW,225,5.0,5.0,71,0.00,,,0.00,Rainwise IP-100,2013-04-05 00:39:00,
2013-04-04 20:44:00,38.0,29.0,29.68,North,360,0.0,5.0,71,0.00,,,0.00,Rainwise IP-100,2013-04-05 00:44:00,
2013-04-04 20:46:00,38.0,31.0,29.68,WSW,247,0.0,3.0,72,0.00,,,0.00,Rainwise IP-100,2013-04-05 00:46:00,
2013-04-04 20:51:00,38.0,31.0,29.68,SSW,202,0.0,2.0,72,0.00,,,0.00,Rainwise IP-100,2013-04-05 00:51:00,
2013-04-04 20:54:00,38.0,31.0,29.68,SSW,202,0.0,2.0,72,0.00,,,0.00,Rainwise IP-100,2013-04-05 00:54:00,
2013-04-04 20:59:00,37.0,29.0,29.67,SW,225,1.0,6.0,74,0.00,,,0.00,Rainwise IP-100,2013-04-05 00:59:00,
2013-04-04 21:04:00,37.0,31.0,29.67,SW,225,6.0,8.0,77,0.00,,,0.00,Rainwise IP-100,2013-04-05 01:04:00,
2013-04-04 21:09:00,38.0,31.0,29.67,SW,225,4.0,10.0,76,0.00,,,0.00,Rainwise IP-100,2013-04-05 01:09:00,
2013-04-04 21:14:00,38.0,31.0,29.67,WSW,247,8.0,9.0,76,0.00,,,0.00,Rainwise IP-100,2013-04-05 01:14:00,
2013-04-04 21:19:00,38.0,32.0,29.67,West,270,3.0,10.0,77,0.00,,,0.00,Rainwise IP-100,2013-04-05 01:19:00,
2013-04-04 21:24:00,38.0,32.0,29.67,SSW,202,2.0,11.0,78,0.00,,,0.00,Rainwise IP-100,2013-04-05 01:24:00,
2013-04-04 21:29:00,38.0,32.0,29.67,SSW,202,5.0,8.0,78,0.00,,,0.00,Rainwise IP-100,2013-04-05 01:29:00,
2013-04-04 21:31:00,38.0,32.0,29.67,SSE,157,4.0,8.0,78,0.00,,,0.00,Rainwise IP-100,2013-04-05 01:31:00,
2013-04-04 21:34:00,38.0,32.0,29.67,SSW,202,5.0,11.0,80,0.00,,,0.00,Rainwise IP-100,2013-04-05 01:34:00,
2013-04-04 21:36:00,38.0,32.0,29.67,WSW,247,6.0,11.0,80,0.00,,,0.00,Rainwise IP-100,2013-04-05 01:36:00,
2013-04-04 21:39:00,38.0,32.0,29.67,SW,225,0.0,10.0,80,0.00,,,0.00,Rainwise IP-100,2013-04-05 01:39:00,
2013-04-04 21:44:00,37.0,31.0,29.67,North,360,2.0,3.0,79,0.00,,,0.00,Rainwise IP-100,2013-04-05 01:44:00,
2013-04-04 21:49:00,37.0,32.0,29.67,SW,225,1.0,3.0,81,0.00,,,0.00,Rainwise IP-100,2013-04-05 01:49:00,
2013-04-04 21:54:00,37.0,32.0,29.67,WSW,247,6.0,6.0,82,0.00,,,0.00,Rainwise IP-100,2013-04-05 01:54:00,
2013-04-04 21:59:00,37.0,32.0,29.67,WSW,247,6.0,6.0,82,0.00,,,0.00,Rainwise IP-100,2013-04-05 01:59:00,
2013-04-04 22:04:00,36.0,31.0,29.66,West,270,3.0,6.0,82,0.00,,,0.00,Rainwise IP-100,2013-04-05 02:04:00,
2013-04-04 22:09:00,36.0,31.0,29.66,West,270,1.0,6.0,83,0.00,,,0.00,Rainwise IP-100,2013-04-05 02:09:00,
2013-04-04 22:14:00,37.0,32.0,29.66,WSW,247,5.0,9.0,84,0.00,,,0.00,Rainwise IP-100,2013-04-05 02:14:00,
2013-04-04 22:16:00,37.0,33.0,29.66,WSW,247,3.0,9.0,86,0.00,,,0.00,Rainwise IP-100,2013-04-05 02:16:00,
2013-04-04 22:21:00,37.0,33.0,29.66,West,270,4.0,5.0,85,0.00,,,0.00,Rainwise IP-100,2013-04-05 02:21:00,
2013-04-04 22:22:00,37.0,33.0,29.66,West,270,3.0,5.0,85,0.00,,,0.00,Rainwise IP-100,2013-04-05 02:22:00,
2013-04-04 22:27:00,37.0,33.0,29.66,SSW,202,2.0,7.0,85,0.00,,,0.00,Rainwise IP-100,2013-04-05 02:27:00,
2013-04-04 22:31:00,38.0,33.0,29.65,SW,225,5.0,6.0,84,0.00,,,0.00,Rainwise IP-100,2013-04-05 02:31:00,
2013-04-04 22:34:00,38.0,33.0,29.65,SW,225,5.0,6.0,84,0.00,,,0.00,Rainwise IP-100,2013-04-05 02:34:00,
2013-04-04 22:36:00,38.0,33.0,29.65,WSW,247,5.0,5.0,84,0.00,,,0.00,Rainwise IP-100,2013-04-05 02:36:00,
2013-04-04 22:41:00,38.0,33.0,29.64,SW,225,0.0,5.0,83,0.00,,,0.00,Rainwise IP-100,2013-04-05 02:41:00,
2013-04-04 22:46:00,37.0,32.0,29.64,South,180,3.0,3.0,84,0.00,,,0.00,Rainwise IP-100,2013-04-05 02:46:00,
2013-04-04 22:51:00,38.0,33.0,29.64,West,270,5.0,9.0,83,0.00,,,0.00,Rainwise IP-100,2013-04-05 02:51:00,
2013-04-04 22:54:00,38.0,33.0,29.64,West,270,9.0,10.0,84,0.00,,,0.00,Rainwise IP-100,2013-04-05 02:54:00,
2013-04-04 22:56:00,38.0,33.0,29.64,WSW,247,7.0,13.0,84,0.00,,,0.00,Rainwise IP-100,2013-04-05 02:56:00,
2013-04-04 22:59:00,39.0,35.0,29.64,West,270,6.0,13.0,83,0.00,,,0.00,Rainwise IP-100,2013-04-05 02:59:00,
2013-04-04 23:04:00,39.0,35.0,29.64,West,270,5.0,13.0,82,0.00,,,0.00,Rainwise IP-100,2013-04-05 03:04:00,
2013-04-04 23:09:00,39.0,33.0,29.64,West,270,5.0,12.0,81,0.00,,,0.00,Rainwise IP-100,2013-04-05 03:09:00,
2013-04-04 23:14:00,39.0,33.0,29.65,West,270,9.0,10.0,81,0.00,,,0.00,Rainwise IP-100,2013-04-05 03:14:00,
2013-04-04 23:19:00,39.0,35.0,29.65,West,270,5.0,9.0,82,0.00,,,0.00,Rainwise IP-100,2013-04-05 03:19:00,
2013-04-04 23:24:00,39.0,35.0,29.63,West,270,11.0,11.0,82,0.00,,,0.00,Rainwise IP-100,2013-04-05 03:24:00,
2013-04-04 23:29:00,40.0,36.0,29.63,West,270,9.0,11.0,83,0.00,,,0.00,Rainwise IP-100,2013-04-05 03:29:00,
2013-04-04 23:31:00,40.0,36.0,29.63,West,270,7.0,13.0,82,0.00,,,0.00,Rainwise IP-100,2013-04-05 03:31:00,
2013-04-04 23:36:00,40.0,35.0,29.63,West,270,3.0,13.0,81,0.00,,,0.00,Rainwise IP-100,2013-04-05 03:36:00,
2013-04-04 23:41:00,40.0,36.0,29.63,WSW,247,1.0,8.0,82,0.00,,,0.00,Rainwise IP-100,2013-04-05 03:41:00,
2013-04-04 23:46:00,40.0,36.0,29.63,West,270,4.0,8.0,82,0.00,,,0.00,Rainwise IP-100,2013-04-05 03:46:00,
2013-04-04 23:49:00,40.0,36.0,29.63,West,270,5.0,7.0,82,0.00,,,0.00,Rainwise IP-100,2013-04-05 03:49:00,
2013-04-04 23:51:00,40.0,36.0,29.62,West,270,8.0,8.0,82,0.00,,,0.00,Rainwise IP-100,2013-04-05 03:51:00,
2013-04-04 23:56:00,40.0,36.0,29.62,SE,135,2.0,12.0,82,0.00,,,0.00,Rainwise IP-100,2013-04-05 03:56:00,